QPF
0.01 0.01 0.02 0.02 0.01 0.00 0.00 0.00 0.00 0.00 0.02 0.02 0.02 0.02 0.05 0.11 0.20 0.22 0.18 0.14 0.18 0.15 0.03 0.00 0.00 0.00 0.00 0.00 0.00 0.00 0.00 0.00 0.00 0.00 0.00 0.00 0.00 0.00 0.00 0.00 0.00 0.00 0.00 0.01 0.03 0.04 0.01 0.00 0.00 0.00 0.00 0.00 0.00 0.00
0.00 0.01 0.01 0.01 0.02 0.01 0.00 0.00 0.00 0.00 0.02 0.02 0.02 0.03 0.08 0.19 0.16 0.13 0.17 0.20 0.22 0.19 0.14 0.04 0.01 0.00 0.00 0.00 0.00 0.00 0.00 0.00 0.00 0.00 0.00 0.00 0.00 0.00 0.00 0.00 0.00 0.00 0.00 0.00 0.00 0.00 0.00 0.00 0.00 0.00 0.00 0.00 0.00 0.00
0.01 0.01 0.01 0.01 0.02 0.02 0.01 0.00 0.00 0.01 0.01 0.01 0.02 0.06 0.17 0.34 0.29 0.16 0.14 0.21 0.23 0.18 0.17 0.11 0.09 0.03 0.02 0.02 0.01 0.01 0.00 0.00 0.00 0.00 0.01 0.05 0.05 0.02 0.01 0.00 0.00 0.00 0.00 0.01 0.00 0.00 0.00 0.00 0.00 0.00 0.00 0.00 0.00 0.00
0.02 0.01 0.01 0.01 0.01 0.03 0.02 0.01 0.00 0.00 0.00 0.00 0.02 0.06 0.08 0.17 0.32 0.17 0.16 0.20 0.20 0.15 0.14 0.08 0.03 0.04 0.05 0.03 0.03 0.05 0.05 0.03 0.06 0.09 0.12 0.13 0.06 0.01 0.01 0.00 0.00 0.00 0.01 0.00 0.00 0.00 0.00 0.00 0.00 0.00 0.00 0.00 0.00 0.00
0.02 0.02 0.02 0.01 0.01 0.02 0.02 0.01 0.00 0.00 0.00 0.00 0.01 0.06 0.20 0.21 0.14 0.15 0.12 0.17 0.22 0.19 0.10 0.06 0.06 0.08 0.08 0.08 0.05 0.06 0.09 0.12 0.14 0.11 0.07 0.03 0.00 0.00 0.00 0.00 0.00 0.00 0.00 0.00 0.00 0.00 0.00 0.00 0.00 0.00 0.00 0.00 0.00 0.00
0.02 0.03 0.02 0.02 0.01 0.02 0.02 0.01 0.01 0.00 0.00 0.00 0.01 0.06 0.15 0.21 0.22 0.13 0.08 0.08 0.17 0.16 0.07 0.06 0.06 0.07 0.09 0.08 0.06 0.07 0.07 0.07 0.05 0.03 0.01 0.00 0.00 0.00 0.00 0.00 0.00 0.01 0.00 0.00 0.00 0.00 0.00 0.00 0.00 0.00 0.00 0.00 0.00 0.00
0.02 0.03 0.03 0.02 0.01 0.01 0.02 0.01 0.01 0.00 0.00 0.00 0.01 0.05 0.16 0.21 0.12 0.07 0.06 0.05 0.14 0.11 0.06 0.07 0.08 0.09 0.07 0.05 0.04 0.04 0.02 0.02 0.00 0.00 0.00 0.00 0.00 0.00 0.00 0.00 0.00 0.00 0.00 0.00 0.00 0.00 0.00 0.00 0.00 0.00 0.00 0.00 0.00 0.00
0.03 0.03 0.03 0.01 0.01 0.01 0.01 0.01 0.02 0.00 0.00 0.00 0.04 0.06 0.12 0.12 0.05 0.02 0.04 0.09 0.08 0.03 0.01 0.02 0.04 0.03 0.01 0.03 0.02 0.01 0.01 0.01 0.00 0.00 0.00 0.00 0.00 0.00 0.00 0.00 0.00 0.00 0.00 0.00 0.00 0.00 0.00 0.00 0.00 0.00 0.00 0.00 0.00 0.00
0.02 0.03 0.03 0.01 0.02 0.01 0.00 0.02 0.01 0.00 0.00 0.00 0.05 0.08 0.23 0.12 0.09 0.04 0.03 0.01 0.00 0.00 0.00 0.00 0.00 0.00 0.00 0.00 0.00 0.00 0.00 0.00 0.00 0.00 0.00 0.00 0.00 0.00 0.00 0.00 0.00 0.00 0.00 0.00 0.00 0.00 0.00 0.00 0.00 0.00 0.00 0.00 0.00 0.00
0.02 0.03 0.02 0.00 0.02 0.04 0.04 0.02 0.00 0.00 0.00 0.01 0.05 0.12 0.09 0.15 0.12 0.05 0.02 0.00 0.00 0.00 0.00 0.00 0.00 0.00 0.00 0.00 0.00 0.00 0.00 0.00 0.00 0.00 0.00 0.00 0.00 0.00 0.00 0.00 0.00 0.00 0.00 0.00 0.00 0.00 0.00 0.00 0.00 0.00 0.00 0.00 0.00 0.00
0.03 0.00 0.00 0.00 0.02 0.05 0.08 0.04 0.02 0.00 0.00 0.00 0.01 0.06 0.13 0.14 0.10 0.10 0.03 0.00 0.00 0.00 0.00 0.00 0.00 0.00 0.00 0.00 0.00 0.00 0.00 0.00 0.00 0.00 0.00 0.00 0.00 0.00 0.00 0.00 0.00 0.00 0.00 0.00 0.00 0.00 0.00 0.00 0.00 0.00 0.00 0.00 0.00 0.00
0.02 0.01 0.02 0.03 0.00 0.03 0.05 0.02 0.00 0.00 0.00 0.00 0.02 0.07 0.08 0.05 0.07 0.10 0.07 0.01 0.00 0.00 0.00 0.00 0.00 0.00 0.00 0.00 0.00 0.00 0.00 0.00 0.00 0.00 0.00 0.00 0.00 0.00 0.00 0.00 0.00 0.00 0.00 0.00 0.00 0.00 0.00 0.00 0.00 0.00 0.00 0.00 0.00 0.00
0.04 0.05 0.01 0.02 0.00 0.01 0.01 0.02 0.01 0.00 0.00 0.00 0.00 0.02 0.04 0.05 0.04 0.04 0.03 0.00 0.00 0.00 0.00 0.00 0.00 0.00 0.00 0.00 0.00 0.00 0.00 0.00 0.00 0.00 0.00 0.00 0.00 0.00 0.00 0.00 0.00 0.00 0.00 0.00 0.00 0.00 0.00 0.00 0.00 0.00 0.00 0.00 0.00 0.00
0.02 0.01 0.00 0.00 0.00 0.00 0.01 0.07 0.01 0.00 0.00 0.00 0.00 0.00 0.00 0.00 0.03 0.01 0.00 0.00 0.00 0.00 0.00 0.00 0.00 0.00 0.00 0.00 0.00 0.00 0.00 0.00 0.00 0.00 0.00 0.00 0.00 0.00 0.00 0.00 0.00 0.00 0.00 0.00 0.00 0.00 0.00 0.00 0.00 0.00 0.00 0.00 0.00 0.00
0.00 0.00 0.00 0.00 0.00 0.00 0.04 0.05 0.01 0.00 0.00 0.00 0.00 0.00 0.00 0.01 0.01 0.00 0.00 0.00 0.00 0.00 0.00 0.00 0.00 0.00 0.00 0.00 0.00 0.00 0.00 0.00 0.00 0.00 0.00 0.00 0.00 0.00 0.00 0.00 0.00 0.00 0.00 0.00 0.00 0.00 0.00 0.00 0.00 0.00 0.00 0.00 0.00 0.00
0.00 0.00 0.00 0.02 0.06 0.03 0.03 0.03 0.00 0.00 0.00 0.00 0.00 0.01 0.01 0.00 0.00 0.00 0.00 0.00 0.00 0.00 0.00 0.00 0.00 0.00 0.00 0.00 0.00 0.00 0.00 0.00 0.00 0.00 0.00 0.00 0.00 0.00 0.00 0.00 0.00 0.00 0.00 0.00 0.00 0.00 0.00 0.00 0.00 0.00 0.00 0.00 0.00 0.00
0.00 0.00 0.02 0.06 0.02 0.00 0.00 0.02 0.00 0.00 0.00 0.00 0.00 0.01 0.02 0.01 0.01 0.00 0.00 0.00 0.00 0.00 0.00 0.00 0.00 0.00 0.00 0.00 0.00 0.00 0.00 0.00 0.00 0.00 0.00 0.00 0.00 0.00 0.00 0.00 0.00 0.00 0.00 0.00 0.00 0.00 0.00 0.00 0.00 0.00 0.00 0.00 0.00 0.00
0.00 0.02 0.07 0.02 0.00 0.00 0.00 0.00 0.00 0.00 0.00 0.00 0.00 0.00 0.00 0.01 0.03 0.03 0.00 0.00 0.00 0.00 0.00 0.00 0.00 0.00 0.00 0.00 0.00 0.00 0.00 0.00 0.00 0.00 0.00 0.00 0.00 0.00 0.00 0.00 0.00 0.00 0.00 0.00 0.00 0.00 0.00 0.00 0.00 0.00 0.00 0.00 0.00 0.00
0.01 0.11 0.05 0.00 0.00 0.00 0.00 0.00 0.00 0.00 0.00 0.00 0.00 0.00 0.00 0.00 0.00 0.01 0.02 0.00 0.00 0.00 0.00 0.00 0.00 0.00 0.00 0.00 0.00 0.00 0.00 0.00 0.00 0.00 0.00 0.00 0.00 0.00 0.00 0.00 0.00 0.00 0.00 0.00 0.00 0.00 0.00 0.00 0.00 0.00 0.00 0.00 0.00 0.00
0.04 0.08 0.04 0.00 0.00 0.00 0.00 0.00 0.00 0.00 0.00 0.00 0.00 0.00 0.00 0.00 0.00 0.00 0.00 0.00 0.00 0.00 0.00 0.00 0.00 0.00 0.00 0.00 0.00 0.00 0.00 0.00 0.00 0.00 0.00 0.00 0.00 0.00 0.00 0.00 0.00 0.00 0.00 0.00 0.00 0.00 0.00 0.00 0.00 0.00 0.00 0.00 0.00 0.00
0.00 0.00 0.00 0.00 0.00 0.00 0.00 0.00 0.00 0.00 0.00 0.00 0.00 0.00 0.00 0.00 0.00 0.00 0.00 0.00 0.00 0.00 0.00 0.00 0.00 0.00 0.00 0.00 0.00 0.00 0.00 0.00 0.00 0.00 0.00 0.00 0.00 0.00 0.00 0.00 0.00 0.00 0.00 0.00 0.00 0.00 0.00 0.00 0.00 0.00 0.00 0.00 0.00 0.00
0.00 0.00 0.00 0.00 0.00 0.00 0.00 0.00 0.00 0.00 0.00 0.00 0.00 0.00 0.00 0.00 0.00 0.00 0.01 0.00 0.00 0.00 0.00 0.00 0.00 0.00 0.00 0.00 0.00 0.00 0.00 0.00 0.00 0.00 0.00 0.00 0.00 0.00 0.00 0.00 0.00 0.00 0.00 0.00 0.00 0.00 0.00 0.00 0.00 0.00 0.00 0.00 0.00 0.00
0.00 0.00 0.00 0.00 0.00 0.00 0.00 0.00 0.00 0.00 0.00 0.00 0.00 0.00 0.00 0.00 0.00 0.00 0.00 0.01 0.01 0.01 0.00 0.00 0.00 0.00 0.00 0.00 0.00 0.00 0.00 0.00 0.00 0.00 0.00 0.00 0.00 0.00 0.00 0.00 0.00 0.00 0.00 0.00 0.00 0.00 0.01 0.00 0.00 0.00 0.00 0.00 0.00 0.00
0.00 0.00 0.00 0.00 0.00 0.00 0.00 0.00 0.00 0.00 0.00 0.00 0.01 0.01 0.01 0.01 0.00 0.02 0.03 0.03 0.02 0.01 0.01 0.00 0.00 0.00 0.00 0.00 0.00 0.00 0.00 0.00 0.00 0.00 0.00 0.00 0.00 0.00 0.00 0.00 0.00 0.00 0.00 0.00 0.01 0.01 0.00 0.00 0.00 0.00 0.00 0.00 0.00 0.00
0.00 0.00 0.00 0.00 0.00 0.00 0.00 0.00 0.00 0.00 0.00 0.00 0.01 0.02 0.02 0.02 0.01 0.02 0.02 0.02 0.01 0.00 0.00 0.00 0.00 0.00 0.00 0.00 0.00 0.00 0.00 0.00 0.00 0.00 0.00 0.00 0.00 0.00 0.00 0.00 0.00 0.00 0.01 0.02 0.01 0.01 0.00 0.00 0.00 0.00 0.00 0.01 0.01 0.01
0.00 0.00 0.00 0.00 0.00 0.00 0.00 0.00 0.00 0.00 0.00 0.00 0.00 0.00 0.01 0.00 0.00 0.00 0.01 0.02 0.00 0.00 0.00 0.00 0.00 0.00 0.00 0.00 0.00 0.00 0.00 0.00 0.00 0.00 0.00 0.00 0.00 0.00 0.00 0.00 0.00 0.00 0.01 0.01 0.01 0.01 0.01 0.00 0.00 0.00 0.00 0.01 0.01 0.01
0.00 0.00 0.00 0.00 0.00 0.00 0.00 0.00 0.00 0.00 0.00 0.00 0.00 0.00 0.00 0.00 0.00 0.00 0.00 0.00 0.00 0.00 0.00 0.00 0.00 0.00 0.00 0.00 0.00 0.00 0.00 0.00 0.00 0.00 0.00 0.00 0.00 0.00 0.00 0.01 0.02 0.01 0.01 0.01 0.01 0.01 0.01 0.01 0.01 0.01 0.00 0.00 0.01 0.01
0.00 0.00 0.00 0.00 0.00 0.00 0.00 0.00 0.00 0.00 0.00 0.00 0.00 0.00 0.00 0.00 0.00 0.00 0.00 0.00 0.00 0.00 0.00 0.00 0.00 0.00 0.00 0.00 0.00 0.00 0.00 0.00 0.00 0.00 0.00 0.00 0.00 0.00 0.00 0.00 0.02 0.02 0.01 0.01 0.03 0.03 0.02 0.02 0.02 0.02 0.01 0.01 0.01 0.01
0.00 0.00 0.00 0.00 0.00 0.00 0.00 0.00 0.00 0.00 0.00 0.00 0.00 0.00 0.00 0.00 0.01 0.00 0.00 0.00 0.00 0.00 0.00 0.00 0.00 0.00 0.00 0.00 0.00 0.00 0.00 0.00 0.00 0.00 0.00 0.00 0.00 0.00 0.00 0.00 0.01 0.01 0.01 0.01 0.02 0.02 0.02 0.02 0.03 0.02 0.02 0.01 0.00 0.00
0.00 0.00 0.00 0.00 0.00 0.00 0.00 0.00 0.00 0.00 0.00 0.00 0.00 0.00 0.00 0.00 0.01 0.01 0.00 0.00 0.00 0.00 0.00 0.00 0.00 0.00 0.00 0.00 0.00 0.00 0.00 0.00 0.00 0.01 0.00 0.00 0.00 0.00 0.00 0.01 0.02 0.02 0.01 0.01 0.02 0.01 0.01 0.01 0.01 0.01 0.01 0.01 0.00 0.00
0.00 0.00 0.00 0.00 0.00 0.00 0.00 0.00 0.00 0.00 0.00 0.00 0.00 0.00 0.00 0.00 0.01 0.00 0.00 0.00 0.00 0.00 0.00 0.00 0.00 0.00 0.00 0.00 0.00 0.00 0.00 0.00 0.00 0.00 0.00 0.00 0.00 0.00 0.01 0.02 0.02 0.02 0.02 0.02 0.02 0.02 0.02 0.01 0.02 0.02 0.01 0.01 0.01 0.00
0.00 0.00 0.00 0.00 0.00 0.00 0.00 0.00 0.00 0.00 0.00 0.00 0.00 0.00 0.00 0.00 0.00 0.00 0.00 0.00 0.00 0.00 0.00 0.00 0.00 0.00 0.00 0.00 0.00 0.00 0.00 0.00 0.00 0.00 0.00 0.01 0.01 0.01 0.01 0.00 0.01 0.02 0.02 0.02 0.02 0.02 0.02 0.01 0.02 0.02 0.01 0.01 0.01 0.01
0.00 0.00 0.00 0.00 0.00 0.00 0.00 0.00 0.00 0.00 0.00 0.00 0.00 0.00 0.00 0.00 0.00 0.00 0.00 0.00 0.00 0.00 0.00 0.00 0.00 0.00 0.00 0.00 0.00 0.00 0.00 0.00 0.00 0.00 0.00 0.00 0.00 0.00 0.00 0.00 0.00 0.02 0.02 0.02 0.02 0.02 0.02 0.02 0.02 0.02 0.01 0.01 0.01 0.00
MSLP
1021.64 1021.04 1020.50 1020.06 1019.54 1018.98 1018.39 1017.72 1017.03 1016.49 1015.91 1015.20 1014.34 1013.67 1012.96 1012.17 1011.90 1011.69 1012.13 1012.45 1012.68 1013.07 1013.14 1012.96 1012.64 1012.54 1012.25 1012.25 1012.86 1013.46 1013.75 1014.16 1014.61 1015.10 1015.30 1015.32 1015.76 1015.75 1016.26 1016.68 1017.09 1017.44 1018.15 1018.69 1019.08 1019.25 1018.81 1017.96 1018.77 1019.42 1020.09 1021.03 1021.68 1022.43
1021.18 1020.60 1020.06 1019.52 1019.15 1018.62 1018.16 1017.53 1017.05 1016.49 1015.69 1014.92 1014.15 1013.41 1012.63 1011.60 1010.01 1010.94 1012.04 1012.29 1012.45 1013.16 1013.88 1013.92 1013.99 1013.96 1013.70 1013.58 1013.21 1013.21 1013.18 1013.53 1013.78 1014.49 1015.06 1015.22 1015.94 1016.09 1015.91 1016.63 1016.57 1016.99 1016.56 1017.38 1018.08 1018.19 1018.09 1018.61 1018.86 1019.57 1020.16 1021.03 1021.92 1022.41
1020.57 1020.05 1019.56 1018.99 1018.57 1018.13 1017.73 1017.24 1016.74 1016.07 1015.35 1014.76 1013.88 1012.90 1012.48 1011.75 1010.39 1010.80 1011.78 1012.16 1012.64 1013.35 1014.30 1014.41 1014.73 1014.71 1014.15 1014.13 1013.62 1013.64 1013.99 1014.10 1014.25 1014.50 1014.98 1015.85 1016.24 1016.39 1016.38 1016.42 1016.46 1016.70 1016.50 1017.20 1018.17 1018.90 1019.04 1019.43 1019.95 1020.20 1020.66 1021.27 1021.77 1022.21
1019.95 1019.41 1018.95 1018.51 1018.02 1017.63 1017.28 1016.88 1016.28 1015.68 1015.23 1014.74 1013.68 1012.88 1012.26 1011.43 1010.67 1010.86 1011.77 1012.16 1012.49 1013.11 1013.85 1015.16 1015.05 1015.18 1015.08 1014.43 1013.97 1013.86 1014.07 1014.45 1015.04 1015.35 1015.72 1016.23 1016.75 1016.90 1017.09 1016.86 1016.77 1017.08 1017.00 1017.63 1018.57 1019.29 1019.86 1020.26 1020.41 1020.79 1021.20 1021.56 1021.95 1022.21
1019.24 1018.71 1018.24 1017.90 1017.42 1017.10 1016.79 1016.56 1016.14 1015.67 1015.19 1014.53 1013.66 1012.80 1012.70 1012.41 1011.61 1011.65 1012.28 1012.66 1012.61 1013.08 1014.09 1015.30 1015.54 1015.76 1015.39 1014.94 1014.68 1014.66 1014.85 1015.24 1015.84 1016.46 1016.87 1017.23 1017.31 1017.55 1017.83 1017.66 1017.42 1017.28 1017.43 1017.88 1018.15 1018.42 1019.21 1020.14 1020.68 1021.01 1021.44 1021.83 1022.16 1022.34
1018.55 1018.13 1017.69 1017.31 1016.94 1016.62 1016.31 1016.06 1015.77 1015.33 1014.78 1014.10 1013.41 1012.72 1012.43 1012.06 1012.26 1012.34 1012.68 1013.22 1012.96 1012.92 1013.66 1015.56 1016.40 1016.24 1015.98 1015.63 1015.55 1015.74 1015.82 1016.02 1016.34 1016.89 1017.67 1017.95 1017.94 1018.09 1018.47 1018.42 1017.71 1017.45 1017.51 1017.62 1018.38 1018.91 1019.28 1020.01 1020.70 1021.09 1021.48 1021.76 1021.94 1022.05
1017.90 1017.53 1017.17 1016.74 1016.43 1016.20 1015.90 1015.62 1015.37 1014.90 1014.35 1013.75 1013.00 1012.07 1012.27 1012.58 1012.75 1012.37 1012.53 1012.83 1012.85 1013.08 1013.77 1015.60 1016.56 1016.76 1016.55 1016.30 1016.43 1016.61 1016.70 1016.96 1017.23 1017.75 1018.29 1018.56 1018.77 1018.54 1019.02 1018.90 1018.13 1017.88 1017.95 1018.33 1018.47 1019.10 1020.13 1020.47 1020.91 1021.20 1021.31 1021.59 1021.86 1021.96
1017.18 1016.94 1016.64 1016.24 1015.98 1015.76 1015.51 1015.27 1015.05 1014.68 1014.21 1013.68 1013.26 1012.27 1011.86 1012.54 1012.66 1012.67 1012.95 1013.11 1013.10 1013.45 1013.91 1015.52 1016.99 1017.34 1017.17 1017.09 1017.30 1017.44 1017.57 1017.87 1018.33 1018.69 1018.97 1019.23 1019.39 1019.32 1019.21 1018.77 1018.58 1018.56 1018.59 1018.94 1019.16 1019.39 1019.88 1020.38 1020.80 1021.08 1021.28 1021.45 1021.60 1021.73
1016.60 1016.31 1016.02 1015.75 1015.59 1015.35 1015.13 1014.98 1014.77 1014.45 1014.09 1013.61 1013.59 1013.51 1013.24 1013.13 1013.21 1013.31 1013.22 1013.13 1013.32 1013.88 1014.22 1015.28 1016.28 1017.39 1017.34 1017.60 1017.82 1018.01 1018.11 1018.94 1019.34 1019.55 1019.90 1020.00 1020.22 1019.68 1018.97 1018.77 1018.76 1018.76 1018.75 1019.08 1019.51 1019.89 1020.42 1020.82 1021.19 1021.46 1021.64 1021.77 1021.85 1021.80
1016.10 1015.74 1015.52 1015.40 1015.23 1015.03 1014.76 1014.60 1014.44 1014.20 1014.00 1013.81 1014.04 1014.04 1014.06 1014.20 1013.66 1013.62 1013.84 1014.00 1013.87 1014.28 1014.81 1015.99 1016.40 1017.26 1017.61 1017.87 1018.54 1019.02 1019.35 1020.15 1020.69 1021.28 1020.86 1020.83 1020.54 1019.63 1019.21 1018.93 1018.94 1018.94 1019.06 1019.24 1019.76 1020.25 1020.53 1020.90 1021.16 1021.41 1021.68 1021.73 1021.68 1021.59
1015.59 1015.38 1015.27 1015.12 1014.94 1014.74 1014.45 1014.30 1014.14 1014.10 1014.19 1014.24 1014.34 1014.62 1014.63 1014.37 1014.18 1014.48 1014.99 1015.20 1015.66 1016.11 1016.18 1016.75 1016.95 1017.42 1017.95 1018.31 1019.16 1019.97 1020.83 1021.60 1022.17 1022.51 1022.10 1022.08 1021.29 1020.21 1019.40 1019.08 1019.14 1019.29 1019.28 1019.33 1019.59 1019.94 1020.27 1020.67 1021.11 1021.26 1021.31 1021.30 1021.25 1021.08
1015.37 1015.21 1015.07 1014.92 1014.69 1014.44 1014.19 1014.05 1014.16 1014.58 1014.95 1014.91 1014.79 1014.84 1014.82 1014.98 1015.15 1015.65 1016.32 1016.66 1016.62 1016.97 1017.16 1017.44 1017.71 1017.82 1018.42 1018.49 1019.76 1021.27 1022.28 1022.81 1023.53 1023.45 1023.22 1022.80 1021.48 1020.57 1020.09 1019.55 1019.36 1019.35 1019.52 1019.73 1019.87 1020.15 1020.50 1020.90 1021.05 1021.09 1021.09 1021.03 1020.95 1020.74
1015.33 1015.06 1014.85 1014.66 1014.48 1014.25 1014.02 1014.03 1014.33 1014.55 1014.82 1015.18 1015.38 1015.73 1015.84 1016.25 1016.32 1016.55 1017.08 1017.35 1017.36 1017.28 1017.71 1017.97 1018.35 1018.50 1019.06 1019.72 1021.58 1022.52 1023.59 1024.75 1024.40 1024.48 1024.03 1023.03 1021.62 1020.82 1020.36 1020.02 1019.83 1019.70 1019.80 1019.97 1020.15 1020.46 1020.69 1020.82 1020.91 1020.94 1020.83 1020.67 1020.52 1020.42
1015.11 1014.89 1014.68 1014.49 1014.41 1014.31 1014.17 1014.44 1014.76 1014.91 1015.22 1016.40 1017.06 1017.42 1017.75 1017.41 1017.28 1017.32 1017.35 1017.46 1017.60 1017.66 1018.05 1018.35 1019.19 1019.87 1020.73 1021.71 1023.04 1024.38 1025.49 1025.17 1025.43 1024.99 1024.04 1022.66 1021.72 1021.03 1020.69 1020.45 1020.28 1020.16 1020.20 1020.43 1020.61 1020.67 1020.66 1020.59 1020.56 1020.60 1020.56 1020.29 1020.17 1019.92
1014.94 1014.84 1014.69 1014.63 1014.49 1014.37 1014.62 1014.89 1015.11 1015.58 1016.51 1017.47 1017.87 1018.60 1018.46 1018.13 1018.05 1018.01 1017.89 1017.76 1018.01 1018.15 1018.55 1019.41 1020.46 1021.14 1022.40 1023.14 1024.10 1025.03 1025.68 1025.73 1025.00 1024.01 1022.93 1021.87 1021.22 1020.87 1020.67 1020.55 1020.49 1020.59 1020.66 1020.64 1020.50 1020.54 1020.52 1020.50 1020.46 1020.29 1020.07 1019.82 1019.61 1019.43
1014.90 1014.93 1015.08 1014.74 1014.74 1015.00 1015.30 1015.64 1015.98 1016.50 1017.62 1018.13 1018.66 1018.72 1018.73 1018.71 1018.75 1018.44 1018.34 1018.33 1018.23 1018.44 1019.00 1020.02 1021.85 1022.75 1023.79 1024.14 1024.86 1025.13 1025.00 1024.63 1023.50 1022.74 1021.62 1021.23 1020.99 1020.77 1020.67 1020.62 1020.53 1020.52 1020.58 1020.59 1020.57 1020.52 1020.44 1020.28 1020.09 1019.89 1019.70 1019.50 1019.29 1019.14
1015.06 1015.36 1015.14 1015.24 1015.51 1015.80 1016.03 1016.41 1016.75 1017.78 1018.57 1018.96 1019.05 1018.81 1018.85 1019.01 1019.02 1018.91 1018.56 1018.51 1018.31 1018.89 1020.13 1021.08 1022.54 1023.92 1024.35 1024.62 1024.83 1024.28 1023.52 1022.47 1021.71 1021.31 1021.01 1020.81 1020.73 1020.68 1020.65 1020.60 1020.51 1020.52 1020.55 1020.52 1020.44 1020.32 1020.17 1019.89 1019.82 1019.73 1019.59 1019.30 1019.15 1019.04
1015.67 1015.61 1015.55 1015.84 1016.05 1016.38 1017.03 1017.48 1018.41 1019.27 1019.77 1019.81 1019.54 1019.60 1019.29 1018.96 1018.90 1019.02 1018.98 1018.83 1018.87 1019.30 1020.28 1021.44 1022.30 1023.57 1024.18 1024.01 1023.57 1022.40 1021.88 1021.40 1021.19 1020.96 1020.83 1020.70 1020.60 1020.54 1020.52 1020.58 1020.55 1020.54 1020.50 1020.50 1020.47 1020.34 1020.15 1019.97 1019.81 1019.60 1019.40 1019.17 1019.11 1018.89
1016.00 1015.99 1016.25 1016.45 1016.58 1017.29 1018.31 1018.63 1019.10 1020.19 1020.82 1020.60 1020.25 1020.19 1020.11 1019.81 1019.47 1019.36 1019.21 1019.12 1019.05 1019.40 1020.30 1021.54 1022.38 1022.90 1022.65 1022.06 1021.54 1021.49 1021.24 1021.22 1021.10 1020.89 1020.75 1020.61 1020.59 1020.65 1020.72 1020.78 1020.82 1020.78 1020.72 1020.61 1020.45 1020.33 1020.14 1019.91 1019.68 1019.49 1019.29 1019.10 1018.93 1018.67
1016.60 1016.94 1017.01 1016.97 1016.93 1018.41 1019.63 1019.78 1019.57 1020.55 1021.23 1021.52 1021.18 1021.07 1020.91 1020.94 1020.59 1020.30 1020.10 1020.03 1020.14 1020.49 1021.17 1021.62 1021.65 1021.27 1020.97 1020.68 1020.67 1020.65 1020.79 1020.91 1021.11 1021.14 1021.03 1020.89 1020.87 1020.95 1021.07 1021.18 1021.19 1021.04 1020.83 1020.66 1020.49 1020.16 1020.01 1019.74 1019.50 1019.35 1019.19 1018.83 1018.71 1018.50
1017.58 1017.70 1017.52 1017.50 1018.49 1019.42 1020.60 1020.93 1021.20 1021.60 1021.77 1022.20 1022.40 1021.92 1021.92 1021.49 1021.36 1021.45 1021.29 1021.00 1021.14 1021.79 1021.57 1021.25 1020.94 1020.59 1020.41 1020.63 1020.69 1020.75 1020.97 1021.18 1021.40 1021.48 1021.47 1021.39 1021.26 1021.35 1021.39 1021.44 1021.34 1021.32 1021.19 1020.91 1020.66 1020.35 1020.08 1019.84 1019.60 1019.35 1019.12 1018.92 1018.63 1018.30
1018.55 1018.20 1018.57 1018.85 1020.19 1020.86 1021.60 1022.16 1022.64 1022.69 1022.96 1023.38 1023.10 1022.77 1023.00 1022.99 1022.85 1022.85 1022.68 1022.34 1022.53 1022.24 1021.99 1021.57 1021.10 1020.94 1020.97 1021.28 1021.55 1021.69 1021.73 1021.69 1021.78 1021.88 1021.94 1021.94 1021.97 1021.87 1021.65 1021.61 1021.57 1021.54 1021.31 1021.08 1020.76 1020.47 1020.11 1019.81 1019.46 1019.20 1018.98 1018.73 1018.47 1018.18
1018.97 1019.15 1020.45 1021.04 1021.89 1022.64 1023.69 1023.19 1023.64 1024.14 1024.55 1024.35 1024.31 1024.11 1024.38 1024.17 1023.98 1023.78 1023.55 1023.31 1023.10 1023.04 1022.64 1022.16 1021.93 1021.74 1021.81 1022.14 1022.30 1022.57 1022.64 1022.63 1022.64 1022.60 1022.59 1022.57 1022.45 1022.24 1022.05 1021.91 1021.71 1021.66 1021.40 1021.09 1020.76 1020.41 1020.02 1019.70 1019.47 1019.12 1018.91 1018.69 1018.40 1018.03
1019.99 1021.30 1022.61 1023.47 1024.09 1024.60 1024.52 1025.21 1025.39 1025.49 1025.49 1025.45 1025.29 1025.25 1025.16 1024.95 1024.53 1024.19 1024.17 1024.19 1024.33 1023.91 1023.48 1023.20 1022.74 1022.61 1022.67 1022.99 1023.59 1023.71 1023.72 1023.67 1023.55 1023.46 1023.32 1023.09 1023.02 1022.79 1022.53 1022.23 1021.88 1021.61 1021.36 1020.99 1020.62 1020.32 1019.97 1019.61 1019.26 1019.03 1018.79 1018.51 1018.17 1017.84
1021.73 1023.72 1024.21 1024.94 1025.08 1025.26 1025.89 1026.25 1026.81 1026.61 1027.01 1026.96 1026.32 1026.02 1025.81 1025.57 1025.21 1025.17 1025.27 1025.31 1025.07 1025.18 1025.13 1024.76 1024.35 1024.28 1024.41 1024.59 1024.62 1024.82 1024.79 1024.47 1024.51 1024.24 1023.51 1023.33 1023.52 1023.24 1022.85 1022.40 1021.90 1021.44 1021.04 1020.74 1020.50 1020.11 1019.72 1019.40 1019.12 1018.86 1018.55 1018.23 1017.78 1017.40
1023.03 1024.33 1024.54 1024.79 1025.20 1025.43 1025.98 1026.71 1026.90 1027.23 1027.38 1027.17 1026.88 1026.72 1026.44 1026.15 1026.16 1026.69 1026.46 1026.46 1026.46 1026.56 1026.61 1026.57 1026.44 1026.01 1025.76 1025.77 1025.71 1025.48 1025.17 1024.86 1024.76 1024.31 1023.84 1023.70 1023.64 1023.60 1023.14 1022.54 1021.85 1021.14 1020.84 1020.71 1020.28 1019.82 1019.46 1019.15 1018.86 1018.55 1018.15 1017.73 1017.35 1017.14
1024.22 1024.67 1024.50 1024.12 1024.66 1025.25 1025.86 1026.30 1026.67 1026.99 1027.28 1027.27 1027.16 1027.10 1027.03 1027.39 1027.75 1027.66 1027.47 1027.74 1027.82 1027.73 1027.76 1027.74 1027.63 1027.29 1027.10 1026.84 1026.45 1026.10 1025.74 1025.46 1025.28 1024.75 1024.16 1023.84 1023.56 1023.37 1023.19 1022.84 1022.08 1021.36 1020.80 1020.20 1019.82 1019.52 1019.10 1018.68 1018.33 1017.98 1017.63 1017.28 1017.05 1016.83
1025.00 1024.97 1025.11 1025.26 1025.27 1025.65 1026.21 1026.78 1027.11 1027.07 1027.14 1027.06 1027.13 1027.71 1028.02 1028.48 1028.87 1028.84 1028.74 1028.84 1028.98 1028.82 1028.56 1028.56 1028.38 1028.08 1027.76 1027.49 1027.54 1027.23 1026.43 1025.75 1024.87 1024.22 1023.74 1023.59 1023.35 1023.09 1022.78 1022.47 1021.81 1020.98 1020.35 1019.87 1019.30 1018.79 1018.43 1018.09 1017.70 1017.31 1017.03 1016.80 1016.51 1016.31
1025.70 1025.65 1025.68 1026.10 1026.42 1026.67 1026.88 1027.09 1027.11 1026.95 1026.93 1027.03 1027.40 1028.15 1028.67 1029.20 1029.75 1029.67 1029.49 1029.61 1029.56 1029.60 1029.55 1029.35 1028.96 1028.53 1028.11 1027.68 1027.38 1027.08 1026.83 1026.34 1025.65 1025.28 1025.00 1024.53 1023.83 1023.26 1022.50 1021.93 1021.18 1020.48 1019.86 1019.36 1018.82 1018.34 1017.89 1017.33 1016.88 1016.59 1016.34 1016.19 1016.01 1015.93
1026.15 1026.16 1026.62 1027.10 1027.46 1027.68 1027.78 1027.67 1027.58 1027.41 1027.19 1027.33 1027.57 1028.34 1029.21 1029.94 1030.29 1030.23 1030.11 1030.11 1030.24 1030.45 1030.38 1030.13 1029.74 1029.34 1029.35 1028.94 1028.35 1027.56 1026.92 1026.71 1026.53 1026.37 1025.83 1025.04 1024.27 1023.13 1022.26 1021.45 1020.71 1020.15 1019.69 1019.20 1018.68 1018.14 1017.59 1017.08 1016.77 1016.43 1016.20 1015.95 1015.80 1015.89
1026.24 1026.58 1027.12 1027.71 1027.81 1028.13 1028.35 1028.33 1028.11 1027.90 1027.80 1028.04 1028.23 1028.78 1029.74 1030.14 1030.35 1030.57 1030.53 1030.56 1030.63 1030.48 1030.26 1030.14 1029.85 1029.64 1029.49 1029.11 1028.73 1028.28 1027.64 1026.79 1026.53 1026.10 1025.48 1024.61 1023.57 1022.69 1021.79 1021.16 1020.73 1020.14 1019.55 1019.01 1018.51 1018.07 1017.63 1017.18 1016.81 1016.50 1016.22 1016.01 1015.89 1016.03
1026.72 1027.21 1027.60 1028.03 1028.15 1028.32 1028.48 1028.77 1029.08 1028.75 1028.78 1028.80 1029.37 1029.53 1030.00 1030.22 1030.70 1030.85 1030.98 1030.86 1030.83 1030.74 1030.59 1030.52 1030.27 1029.76 1029.38 1029.12 1028.91 1028.64 1028.12 1027.41 1026.69 1025.83 1024.69 1023.61 1022.83 1022.08 1021.56 1021.22 1020.64 1020.00 1019.38 1018.82 1018.32 1017.92 1017.55 1017.19 1016.84 1016.51 1016.23 1015.96 1015.83 1016.07
1027.33 1027.62 1027.98 1028.35 1028.53 1028.66 1028.93 1029.07 1029.52 1029.62 1029.27 1029.64 1029.86 1029.94 1030.33 1030.35 1030.90 1031.10 1030.96 1030.95 1031.15 1031.17 1030.94 1030.39 1029.86 1029.51 1029.24 1029.01 1028.75 1028.40 1028.09 1027.38 1026.68 1025.34 1024.45 1023.36 1022.60 1021.83 1021.58 1021.24 1020.60 1019.99 1019.40 1018.78 1018.35 1017.93 1017.55 1017.21 1016.87 1016.54 1016.27 1016.07 1016.02 1016.18
Thickness
5286 5285 5283 5280 5278 5279 5282 5289 5297 5307 5319 5333 5349 5362 5377 5392 5401 5412 5417 5418 5423 5424 5431 5434 5442 5454 5466 5475 5471 5468 5472 5469 5465 5472 5474 5476 5471 5477 5476 5473 5464 5466 5464 5457 5457 5458 5460 5463 5458 5457 5441 5427 5423 5413
5282 5281 5280 5279 5276 5275 5276 5280 5284 5292 5306 5323 5339 5356 5371 5384 5405 5406 5406 5408 5411 5412 5410 5413 5417 5422 5429 5437 5450 5451 5462 5460 5463 5458 5452 5456 5459 5444 5464 5460 5462 5462 5466 5457 5457 5461 5445 5439 5438 5427 5423 5414 5405 5399
5276 5276 5276 5275 5274 5273 5272 5274 5277 5285 5295 5310 5330 5349 5359 5368 5385 5391 5393 5396 5397 5396 5394 5398 5400 5405 5414 5418 5427 5436 5435 5439 5439 5440 5443 5438 5442 5440 5444 5443 5449 5446 5446 5440 5441 5428 5423 5419 5412 5409 5404 5398 5392 5388
5271 5271 5271 5270 5269 5268 5267 5268 5273 5279 5286 5296 5317 5336 5351 5362 5374 5380 5381 5382 5385 5386 5390 5380 5386 5390 5395 5406 5415 5420 5422 5422 5421 5422 5424 5422 5424 5420 5418 5428 5434 5429 5431 5422 5412 5407 5402 5402 5398 5391 5387 5382 5378 5373
5267 5267 5266 5266 5265 5263 5262 5262 5264 5269 5276 5287 5305 5325 5334 5342 5355 5361 5362 5365 5370 5375 5374 5369 5370 5373 5382 5391 5398 5402 5403 5403 5402 5402 5400 5402 5403 5403 5397 5401 5403 5408 5412 5411 5410 5405 5398 5387 5378 5376 5370 5366 5360 5356
5262 5261 5261 5260 5259 5258 5257 5257 5259 5263 5271 5283 5297 5311 5324 5334 5337 5342 5349 5351 5356 5360 5365 5356 5351 5357 5366 5374 5379 5381 5384 5386 5388 5388 5382 5382 5385 5388 5381 5384 5396 5396 5397 5397 5388 5384 5381 5371 5364 5361 5353 5351 5348 5342
5257 5256 5255 5255 5254 5253 5253 5253 5254 5258 5267 5279 5293 5306 5311 5317 5322 5333 5343 5344 5347 5350 5352 5343 5340 5340 5349 5357 5360 5362 5365 5367 5371 5370 5367 5368 5366 5370 5364 5370 5382 5383 5381 5377 5374 5368 5360 5357 5349 5344 5343 5338 5331 5326
5254 5252 5250 5250 5249 5248 5248 5248 5249 5253 5261 5271 5282 5297 5305 5307 5312 5320 5325 5331 5337 5340 5343 5329 5324 5331 5331 5340 5346 5343 5349 5350 5348 5351 5351 5353 5353 5350 5345 5360 5363 5360 5358 5356 5354 5353 5346 5340 5335 5332 5327 5322 5319 5312
5250 5248 5247 5245 5244 5244 5244 5244 5245 5248 5255 5265 5272 5282 5289 5294 5303 5307 5313 5320 5326 5328 5324 5323 5324 5319 5324 5325 5329 5333 5336 5332 5330 5331 5334 5339 5329 5330 5352 5348 5350 5347 5348 5343 5337 5332 5328 5326 5319 5312 5307 5303 5298 5294
5246 5245 5244 5242 5241 5242 5244 5244 5244 5245 5251 5259 5265 5273 5280 5283 5291 5298 5301 5306 5310 5311 5312 5307 5316 5312 5317 5318 5318 5322 5318 5318 5307 5312 5315 5313 5318 5330 5333 5334 5334 5333 5329 5324 5321 5321 5318 5312 5305 5301 5294 5287 5283 5281
5243 5242 5240 5239 5240 5241 5243 5244 5244 5244 5246 5252 5259 5265 5271 5276 5284 5287 5286 5288 5287 5291 5300 5301 5303 5303 5304 5307 5305 5302 5288 5286 5279 5294 5293 5281 5289 5308 5317 5319 5318 5317 5315 5315 5313 5310 5306 5300 5291 5286 5282 5278 5274 5271
5240 5239 5239 5238 5240 5242 5243 5243 5243 5240 5237 5244 5252 5258 5266 5271 5275 5273 5268 5273 5280 5286 5289 5291 5292 5296 5295 5299 5290 5275 5263 5260 5267 5267 5264 5264 5287 5298 5301 5310 5309 5304 5303 5302 5298 5295 5290 5283 5277 5273 5270 5268 5264 5262
5237 5236 5237 5238 5240 5242 5243 5243 5241 5239 5238 5240 5241 5245 5255 5256 5266 5272 5268 5261 5267 5278 5273 5277 5279 5286 5288 5287 5256 5255 5256 5245 5257 5236 5258 5264 5284 5289 5288 5291 5294 5294 5293 5291 5287 5281 5275 5271 5268 5265 5262 5259 5256 5252
5236 5235 5236 5237 5239 5241 5242 5240 5238 5238 5234 5223 5216 5223 5229 5243 5260 5265 5268 5266 5269 5270 5274 5276 5273 5273 5271 5260 5246 5244 5246 5240 5214 5223 5249 5249 5268 5276 5276 5277 5279 5284 5281 5276 5272 5270 5268 5267 5263 5259 5254 5251 5248 5246
5236 5235 5236 5237 5239 5240 5239 5237 5236 5235 5221 5218 5209 5213 5218 5242 5243 5243 5248 5259 5262 5264 5267 5262 5258 5261 5243 5241 5236 5233 5222 5212 5243 5252 5258 5260 5268 5270 5272 5272 5271 5270 5269 5268 5268 5265 5262 5258 5253 5251 5248 5245 5244 5243
5236 5235 5234 5237 5237 5236 5235 5234 5232 5227 5220 5223 5209 5212 5224 5225 5230 5234 5242 5250 5255 5262 5259 5256 5226 5221 5227 5223 5220 5202 5210 5216 5245 5243 5260 5261 5265 5268 5269 5270 5269 5267 5265 5263 5260 5257 5254 5249 5246 5245 5242 5240 5238 5237
5233 5231 5233 5233 5233 5232 5231 5230 5228 5218 5218 5220 5216 5223 5223 5221 5220 5227 5246 5251 5253 5256 5248 5231 5226 5222 5222 5201 5220 5225 5230 5249 5253 5254 5261 5264 5268 5268 5266 5265 5265 5263 5260 5256 5253 5249 5246 5244 5239 5236 5234 5234 5231 5229
5228 5231 5230 5230 5230 5229 5225 5222 5210 5202 5194 5213 5219 5210 5222 5229 5236 5234 5235 5242 5249 5250 5245 5234 5231 5202 5193 5207 5227 5245 5243 5247 5252 5261 5264 5265 5264 5263 5264 5261 5260 5257 5253 5248 5243 5238 5235 5232 5231 5230 5228 5225 5221 5220
5228 5229 5227 5226 5228 5220 5217 5218 5212 5191 5191 5210 5216 5211 5210 5221 5227 5229 5234 5239 5244 5246 5238 5215 5207 5204 5230 5240 5243 5244 5243 5253 5259 5261 5261 5260 5260 5259 5258 5254 5250 5247 5242 5237 5232 5228 5226 5225 5223 5221 5219 5218 5216 5216
5223 5223 5224 5225 5227 5207 5208 5213 5211 5202 5200 5205 5210 5212 5211 5209 5214 5221 5227 5232 5236 5224 5223 5225 5234 5246 5249 5255 5252 5258 5258 5256 5254 5256 5257 5256 5253 5250 5247 5243 5240 5237 5233 5228 5224 5224 5220 5217 5215 5214 5212 5214 5212 5210
5223 5222 5223 5225 5215 5207 5205 5206 5204 5201 5204 5193 5185 5205 5207 5203 5215 5206 5213 5222 5217 5200 5219 5234 5242 5245 5248 5248 5251 5252 5250 5249 5249 5248 5249 5248 5246 5242 5237 5233 5229 5227 5220 5216 5211 5211 5212 5209 5207 5205 5202 5203 5203 5204
5221 5222 5219 5217 5206 5203 5196 5190 5184 5187 5186 5181 5191 5197 5201 5204 5204 5200 5195 5201 5192 5210 5220 5230 5238 5242 5242 5241 5239 5238 5240 5242 5242 5241 5242 5238 5233 5230 5229 5226 5221 5209 5208 5205 5205 5204 5202 5200 5199 5197 5194 5193 5193 5192
5220 5218 5205 5199 5197 5190 5187 5181 5180 5170 5182 5179 5171 5175 5167 5166 5173 5180 5180 5182 5199 5207 5212 5219 5223 5227 5231 5229 5229 5228 5228 5230 5230 5229 5229 5226 5224 5223 5219 5215 5212 5201 5201 5201 5200 5197 5195 5193 5189 5187 5186 5185 5187 5190
5215 5197 5187 5178 5166 5174 5170 5160 5164 5160 5163 5173 5181 5180 5169 5162 5171 5187 5199 5193 5194 5197 5201 5206 5213 5219 5221 5218 5214 5215 5217 5218 5218 5218 5217 5216 5214 5209 5207 5205 5204 5201 5198 5197 5195 5191 5188 5184 5184 5183 5184 5187 5191 5195
5198 5188 5176 5164 5162 5163 5150 5149 5141 5156 5157 5146 5173 5184 5176 5169 5187 5189 5185 5187 5190 5187 5189 5193 5201 5204 5199 5196 5205 5205 5206 5208 5206 5205 5210 5208 5201 5198 5198 5198 5198 5199 5197 5195 5191 5188 5186 5184 5184 5186 5189 5193 5198 5204
5182 5177 5178 5155 5160 5170 5155 5163 5149 5148 5142 5154 5160 5158 5161 5172 5176 5165 5179 5177 5177 5177 5177 5178 5182 5190 5194 5195 5194 5197 5199 5201 5200 5199 5203 5201 5196 5193 5191 5195 5197 5199 5197 5193 5193 5192 5192 5192 5193 5195 5200 5205 5212 5214
5176 5177 5185 5188 5183 5179 5175 5166 5162 5151 5141 5164 5152 5151 5155 5154 5153 5171 5167 5164 5166 5168 5170 5172 5174 5181 5184 5185 5189 5190 5192 5193 5191 5193 5195 5195 5194 5191 5191 5192 5194 5197 5198 5200 5201 5201 5203 5205 5207 5210 5214 5217 5220 5222
5177 5179 5178 5175 5176 5174 5168 5155 5148 5152 5151 5155 5160 5156 5148 5154 5161 5156 5156 5156 5156 5160 5162 5166 5168 5171 5173 5176 5176 5178 5182 5185 5191 5194 5195 5193 5192 5192 5191 5193 5196 5201 5205 5207 5210 5213 5215 5217 5219 5222 5224 5226 5229 5231
5164 5168 5169 5150 5149 5148 5156 5161 5163 5167 5163 5159 5150 5150 5146 5150 5143 5147 5152 5152 5152 5154 5159 5161 5166 5169 5172 5173 5174 5175 5176 5180 5182 5181 5179 5181 5187 5189 5194 5198 5202 5207 5212 5215 5218 5221 5223 5227 5231 5233 5235 5236 5237 5237
5167 5161 5152 5153 5154 5165 5158 5156 5156 5155 5159 5154 5155 5151 5146 5143 5143 5146 5149 5150 5152 5150 5148 5149 5155 5157 5160 5164 5169 5174 5175 5174 5175 5172 5173 5177 5183 5191 5196 5203 5208 5213 5216 5219 5222 5225 5229 5232 5234 5236 5238 5239 5240 5240
5175 5164 5156 5144 5150 5145 5145 5142 5147 5152 5155 5152 5145 5145 5141 5141 5145 5145 5147 5149 5150 5152 5155 5158 5160 5159 5161 5165 5165 5167 5171 5174 5173 5173 5175 5181 5188 5194 5202 5207 5210 5215 5219 5222 5225 5228 5230 5234 5237 5239 5240 5241 5242 5242
5174 5167 5171 5173 5168 5152 5143 5138 5132 5144 5144 5146 5142 5134 5137 5144 5138 5146 5146 5148 5151 5155 5157 5156 5157 5161 5162 5162 5162 5163 5167 5170 5172 5174 5181 5188 5194 5199 5204 5207 5212 5217 5222 5225 5229 5232 5234 5237 5239 5241 5243 5244 5246 5245
5156 5152 5149 5155 5162 5165 5155 5143 5137 5139 5136 5133 5140 5137 5137 5148 5142 5147 5148 5149 5149 5150 5153 5156 5160 5161 5163 5163 5164 5166 5168 5170 5173 5178 5183 5190 5195 5201 5204 5208 5214 5219 5223 5227 5230 5234 5237 5238 5241 5243 5245 5246 5246 5246